Location: West Chester
(39.9610°N, 75.6060°W)
Time: 19:40:25
(UTC-04:00)

ARIANE 6 FM1 Upper Stage - Pass Details

Date: 20 September 2024
Orbit: 563 x 594 km, 62.0° (Epoch: 11 October)

Event Time Altitude Azimuth Distance (km) Brightness Sun altitude
Rises 22:16:34 0° 265° (W) 2,784 6.8 -35.7°
Reaches altitude 10° 22:19:45 10° 291° (WNW) 1,898 6.0 -36.2°
Enters shadow 22:21:50 14° 320° (NW) 1,646 5.7 -36.5°
